Location: Unspecified
(0.0000°N, 0.0000°E)
Time: 04:57:51
(UTC+00:00)

Vanguard 1 - Pass Details

Date: 19 December 2018
Orbit: 654 x 3829 km, 34.2° (Epoch: 17 June)

Event Time Altitude Azimuth Distance (km) Brightness Sun altitude
Rises 22:58:39 0° 223° (SW) 7,073 14.8 -62.6°
Reaches altitude 10° 23:04:51 10° 214° (SW) 5,530 14.1 -63.3°
Enters shadow 23:12:32 25° 191° (SSW) 3,631 13.0 -64.2°
